Tracking 26443 objects as of 4-Dec-2022
HD Live streaming from Space Station
objects crossing your sky now

COSMOS 1408 DEB

Track COSMOS 1408 DEB now!
10-day predictions


NORAD ID: 50605
Int'l Code: 1982-092AKZ
Perigee: 373.9 km
Apogee: 426.8 km
Inclination: 82.7 °
Period: 92.4 minutes
Semi major axis: 6771 km
RCS: Unknown
Launch date: September 16, 1982
Source: Commonwealth of Independent States (former USSR) (CIS)
Launch site: PLESETSK MISSILE AND SPACE COMPLEX (PKMTR)

Note: This is SATELLITE DEBRIS
aabbcc
Your satellite tracking list
Your tracking list is empty




NASA's NSSDC Master Catalog

Two Line Element Set (TLE):
1 50605U 82092AKZ 22338.13702291  .00033355  00000-0  42692-3 0  9995
2 50605  82.6598  93.8859 0039084 324.8759  34.9920 15.58081561 54051
Source of the keplerian elements: AFSPC